TimeEDT,TemperatureF,Dew PointF,Humidity,Sea Level PressureIn,VisibilityMPH,Wind Direction,Wind SpeedMPH,Gust SpeedMPH,PrecipitationIn,Events,Conditions,WindDirDegrees,DateUTC
12:54 AM,48.0,43.0,83,30.09,-9999.0,North,-9999.0,-,N/A,,Unknown,0,2014-05-18 04:54:00
1:54 AM,46.0,43.0,89,30.10,-9999.0,North,-9999.0,-,N/A,,Unknown,0,2014-05-18 05:54:00
2:54 AM,45.0,41.0,86,30.10,-9999.0,North,-9999.0,-,N/A,,Unknown,0,2014-05-18 06:54:00
3:54 AM,44.1,39.9,85,30.12,-9999.0,North,-9999.0,-,N/A,,Unknown,0,2014-05-18 07:54:00
4:54 AM,44.1,39.9,85,30.13,-9999.0,North,-9999.0,-,N/A,,Unknown,0,2014-05-18 08:54:00
5:54 AM,42.1,37.9,85,30.15,-9999.0,North,-9999.0,-,N/A,,Unknown,0,2014-05-18 09:54:00
6:54 AM,44.1,39.9,85,30.16,-9999.0,North,-9999.0,-,N/A,,Unknown,0,2014-05-18 10:54:00
7:54 AM,46.9,36.0,66,30.16,-9999.0,North,-9999.0,-,N/A,,Unknown,0,2014-05-18 11:54:00
8:54 AM,52.0,37.9,59,30.15,-9999.0,North,-9999.0,-,N/A,,Unknown,0,2014-05-18 12:54:00
9:54 AM,55.9,33.1,42,30.14,-9999.0,North,-9999.0,-,N/A,,Unknown,0,2014-05-18 13:54:00
10:54 AM,59.0,32.0,36,30.12,-9999.0,North,-9999.0,-,N/A,,Unknown,0,2014-05-18 14:54:00
11:54 AM,61.0,30.0,31,30.10,-9999.0,North,-9999.0,-,N/A,,Unknown,0,2014-05-18 15:54:00
12:54 PM,62.1,30.9,31,30.09,-9999.0,North,-9999.0,-,N/A,,Unknown,0,2014-05-18 16:54:00
1:54 PM,61.0,30.0,31,30.08,-9999.0,North,-9999.0,-,N/A,,Unknown,0,2014-05-18 17:54:00
2:54 PM,64.0,30.9,29,30.06,-9999.0,North,-9999.0,-,N/A,,Unknown,0,2014-05-18 18:54:00
3:54 PM,64.0,28.0,26,30.05,-9999.0,North,-9999.0,-,N/A,,Unknown,0,2014-05-18 19:54:00
4:54 PM,62.1,26.1,25,30.06,-9999.0,North,-9999.0,-,N/A,,Unknown,0,2014-05-18 20:54:00
5:54 PM,61.0,28.0,29,30.06,-9999.0,North,-9999.0,-,N/A,,Unknown,0,2014-05-18 21:54:00
6:54 PM,60.1,26.1,27,30.07,-9999.0,North,-9999.0,-,N/A,,Unknown,0,2014-05-18 22:54:00
7:54 PM,57.0,28.0,33,30.09,-9999.0,North,-9999.0,-,N/A,,Unknown,0,2014-05-18 23:54:00
8:54 PM,54.0,30.0,40,30.10,-9999.0,North,-9999.0,-,N/A,,Unknown,0,2014-05-19 00:54:00
9:54 PM,48.9,33.1,54,30.11,-9999.0,North,-9999.0,-,N/A,,Unknown,0,2014-05-19 01:54:00
10:54 PM,46.0,36.0,68,30.11,-9999.0,North,-9999.0,-,N/A,,Unknown,0,2014-05-19 02:54:00
11:54 PM,43.0,36.0,76,30.10,-9999.0,North,-9999.0,-,N/A,,Unknown,0,2014-05-19 03:54:00